Content
SEND FEEDBACK

Daily
Averages
Monthly
Summary
Canada

QUEBEC CITY AIRPORT, QUEBEC


Home > North America > Canada > Quebec
Elevation: 244 feet     Latitude: 46 48N     Longitude: 71 23W

WEATHER
 
SELECT A DAY
Number of Records: 192,807;   Date Range: 6/30/96 - 9/17/14
 
SHARE

PRINT THIS DATA

[ ← Previous Day ]
WEATHER ALMANAC - OCTOBER 15, 2013
[ Next Day → ]
[ °C ]   °F
Weather ElementAverageHighLow
Temperature51.3 °F60.8 °F (4:00 pm)42.8 °F (6:00 am)
Dewpoint43.2 °F46.4 °F (2:00 am)39.2 °F (12:00 pm)
Humidity74.1 %100 % (12:50 am)44 % (2:00 pm)
Barometer30.25 in30.33 in (8:00 am)30.13 in (11:00 pm)
Wind Speed5.4 mph12.7 mph (11:00 pm)
Weather ElementAverage
Visibility20.2 mi
Wind DirectionESE (100.9 °)

Weather ElementTotal
Precipitation---
Heating Degree Days13.2 (Base 65)
Growing Degree Days1.8 (Base 50)
Averaged from 32 records on October 15, 2013
WEATHER CONDITIONS BREAKOUT
WIND DIRECTION BREAKOUT
WEATHER BY HOUR - OCTOBER 15, 2013
[ °C ]   °F
Local TimeTemperatureDewpointHumidityBarometerVisibilityWind DirectionWind SpeedGust SpeedPrecipitationEventsConditions
12:50 AM44.6 °F44.6 °F100 %30.29 in6.0 miCalmScattered Clouds
1:00 AM44.6 °F44.6 °F100 %30.29 in8.0 miVariable2.3 mphPartly Cloudy
2:00 AM45.0 °F45.0 °F98 %30.28 inWest (270°)2.3 mph
2:00 AM46.4 °F46.4 °F100 %30.30 in15.0 miNW (310°)4.6 mphPartly Cloudy
3:00 AM46.4 °F46.4 °F100 %30.29 in15.0 miNNW (340°)3.5 mphPartly Cloudy
4:00 AM48.2 °F44.6 °F87 %30.29 in15.0 miNorth (350°)10.4 mphClear
5:00 AM44.0 °F43.0 °F96 %30.28 inNorth (350°)1.2 mph
5:00 AM44.6 °F42.8 °F93 %30.29 in15.0 miNorth (10°)4.6 mphClear
6:00 AM42.8 °F41.0 °F93 %30.31 in15.0 miNNE (20°)5.8 mphClear
7:00 AM42.8 °F41.0 °F93 %30.32 in15.0 miCalmMostly Cloudy
8:00 AM46.0 °F44.0 °F88 %30.32 inNorth (350°)2.3 mph
8:00 AM46.4 °F42.8 °F87 %30.33 in30.0 miNorth (10°)4.6 mphMostly Cloudy
9:00 AM48.2 °F42.8 °F82 %30.33 in30.0 miNE (40°)5.8 mphMostly Cloudy
10:00 AM51.8 °F44.6 °F76 %30.33 in30.0 miNE (50°)9.2 mphMostly Cloudy
11:00 AM54.0 °F44.0 °F58 %30.29 inEast (90°)9.2 mph
11:00 AM55.4 °F42.8 °F63 %30.32 in30.0 miENE (70°)8.1 mphScattered Clouds
12:00 PM57.2 °F39.2 °F51 %30.30 in30.0 miENE (60°)8.1 mphScattered Clouds
1:00 PM57.2 °F41.0 °F55 %30.28 in30.0 miNE (50°)9.2 mphMostly Cloudy
2:00 PM59.0 °F43.0 °F44 %30.22 inNE (40°)3.5 mph
2:00 PM59.0 °F42.8 °F55 %30.25 in30.0 miESE (110°)4.6 mphMostly Cloudy
3:00 PM59.0 °F44.6 °F59 %30.23 in25.0 miENE (60°)3.5 mphMostly Cloudy
4:00 PM60.8 °F44.6 °F55 %30.21 in25.0 miCalmMostly Cloudy
5:00 PM59.0 °F46.0 °F52 %30.17 inENE (70°)3.5 mph
5:00 PM59.0 °F44.6 °F59 %30.20 in20.0 miNE (50°)5.8 mphMostly Cloudy
6:00 PM55.4 °F44.6 °F67 %30.19 in25.0 miENE (70°)5.8 mphMostly Cloudy
7:00 PM53.6 °F44.6 °F72 %30.19 in15.0 miENE (70°)8.1 mphMostly Cloudy
8:00 PM52.0 °F42.0 °F60 %30.17 inENE (70°)5.8 mph
8:00 PM51.8 °F41.0 °F67 %30.19 in15.0 miENE (60°)8.1 mphMostly Cloudy
9:00 PM51.8 °F41.0 °F67 %30.19 in15.0 miNE (40°)5.8 mphMostly Cloudy
10:00 PM51.8 °F39.2 °F62 %30.17 in15.0 miENE (70°)8.1 mphMostly Cloudy
11:00 PM51.0 °F42.0 °F64 %30.13 inEast (80°)5.8 mph
11:00 PM51.8 °F41.0 °F67 %30.15 in15.0 miENE (70°)12.7 mphMostly Cloudy
Hourly data recorded from CYQB, located miles away from Quebec City Airport, Quebec







STORIES FROM OUR PARTNERS